Wright-Patt AFB, OH

6:01 AM EDT on September 25, 2017 (GMT -0400)
Wright-Patterson Air Force Base

Weather History for KFFO - March, 2014

Change the Weather History Date:

Thursday, March 13, 2014

  Actual Average Record
Temperature  
Mean Temperature 25 °F -  
Max Temperature 35 °F 45 °F 77 °F (2007)
Min Temperature 15 °F 26 °F 14 °F (1998)
Degree Days  
Heating Degree Days 40    
Moisture  
Dew Point 12 °F    
Average Humidity 63    
Maximum Humidity 84    
Minimum Humidity 33    
Precipitation  
Precipitation 0.00 in - - ()
Snow  
Snow 0.00 in - - ()
Snow Depth 1.00 in    
Sea Level Pressure  
Sea Level Pressure 30.15 in    
Wind  
Wind Speed 8 mph (West)    
Max Wind Speed 17 mph    
Max Gust Speed 22 mph    
Visibility 10 miles    
Events Snow    
Averages and records for this station are not official NWS values.
T = Trace of Precipitation, MM = Missing Value Source: NWS Daily Summary

Daily Weather History Graph

Daily Weather History Graph

Search for Another Location

Airport or City:

Trip Planner

Search our weather history database for the weather conditions in past years. The results will help you decide how hot, cold, wet, or windy it might be!

Date:

Astronomy

Mar. 13, 2014 Rise Set
Actual Time 7:50 AM EDT 7:41 PM EDT
Civil Twilight 7:23 AM EDT 8:07 PM EDT
Nautical Twilight 6:52 AM EDT 8:39 PM EDT
Astronomical Twilight 6:21 AM EDT 9:11 PM EDT
Moon 5:06 PM EDT (3/13) 5:56 AM EDT (3/13)
Length of Visible Light 12h 44m
Length of Day
11h 50m
Waxing Gibbous, 91% of the Moon is Illuminated
Mar 13
Waxing Gibbous
Mar 16
Full
Mar 23
Last Quarter
Mar 30
New
Apr 7
First Quarter

Hourly Weather History & Observations

Time (EDT) Temp. Windchill Dew Point Humidity Pressure Visibility Wind Dir Wind Speed Gust Speed Precip Events Conditions
12:58 AM 19.8 °F 10.8 °F 15.6 °F 84% 30.04 in 4.0 mi NW 6.9 mph - 0.00 in Snow Light Snow
1:58 AM 18.5 °F 5.5 °F 13.6 °F 81% 30.04 in 10.0 mi NW 12.7 mph - 0.00 in Snow Light Snow
2:58 AM 17.6 °F 7.3 °F 12.6 °F 81% 30.06 in 10.0 mi NW 8.1 mph - 0.00 in Snow Light Snow
3:58 AM 17.4 °F 8.0 °F 12.4 °F 81% 30.06 in 8.0 mi NW 6.9 mph - 0.00 in Snow Light Snow
4:58 AM 17.6 °F 7.3 °F 12.7 °F 81% 30.07 in 10.0 mi NW 8.1 mph - 0.00 in Snow Light Snow
5:58 AM 17.6 °F 8.2 °F 12.2 °F 79% 30.11 in 9.0 mi WNW 6.9 mph - 0.00 in Snow Light Snow
6:58 AM 16.5 °F 8.1 °F 11.5 °F 81% 30.12 in 10.0 mi WNW 5.8 mph - 0.00 in   Mostly Cloudy
7:58 AM 16.2 °F 7.6 °F 11.3 °F 81% 30.16 in 10.0 mi WNW 5.8 mph - 0.00 in   Overcast
8:31 AM 15.8 °F 6.1 °F 10.4 °F 79% 30.13 in 10.0 mi WNW 6.9 mph - N/A Snow Light Snow
8:58 AM 15.3 °F 4.4 °F 10.4 °F 81% 30.20 in 9.0 mi WNW 8.1 mph - 0.00 in Snow Light Snow
9:27 AM 15.8 °F 6.1 °F 10.4 °F 79% 30.18 in 9.0 mi WNW 6.9 mph - N/A Snow Light Snow
9:58 AM 15.1 °F 5.2 °F 9.3 °F 78% 30.24 in 10.0 mi West 6.9 mph - 0.00 in Snow Light Snow
10:18 AM 15.8 °F 7.2 °F 8.6 °F 73% 30.20 in 10.0 mi West 5.8 mph - N/A   Scattered Clouds
10:58 AM 16.7 °F - 10.2 °F 76% 30.25 in 10.0 mi Variable 1.2 mph - 0.00 in   Scattered Clouds
11:58 AM 19.9 °F - 11.5 °F 70% 30.25 in 10.0 mi Variable 1.2 mph - N/A   Partly Cloudy
12:58 PM 24.1 °F - 13.5 °F 64% 30.24 in 10.0 mi Variable 2.3 mph - N/A   Partly Cloudy
1:58 PM 27.3 °F 19.9 °F 13.6 °F 56% 30.23 in 10.0 mi SW 6.9 mph - N/A   Clear
2:58 PM 29.8 °F 20.3 °F 8.8 °F 41% 30.22 in 10.0 mi West 11.5 mph 18.4 mph N/A   Clear
3:58 PM 32.0 °F 24.8 °F 9.3 °F 39% 30.19 in 10.0 mi SW 8.1 mph 18.4 mph N/A   Clear
4:58 PM 34.3 °F 23.9 °F 9.5 °F 36% 30.16 in 10.0 mi SW 17.3 mph 19.6 mph N/A   Scattered Clouds
5:58 PM 34.3 °F 24.6 °F 7.5 °F 33% 30.15 in 10.0 mi SSW 15.0 mph - N/A   Mostly Cloudy
6:58 PM 34.2 °F 26.2 °F 10.6 °F 38% 30.16 in 10.0 mi SW 10.4 mph - N/A   Overcast
7:58 PM 34.3 °F 27.0 °F 11.5 °F 39% 30.14 in 10.0 mi SSW 9.2 mph - N/A   Mostly Cloudy
8:58 PM 34.9 °F 28.3 °F 12.4 °F 40% 30.13 in 10.0 mi South 8.1 mph - N/A   Overcast
9:58 PM 35.1 °F 27.4 °F 14.2 °F 42% 30.12 in 10.0 mi South 10.4 mph - N/A   Overcast
10:58 PM 35.4 °F 25.6 °F 14.7 °F 43% 30.11 in 10.0 mi South 16.1 mph 21.9 mph N/A   Overcast
11:58 PM 34.7 °F 25.5 °F 15.6 °F 46% 30.10 in 10.0 mi SSW 13.8 mph - N/A   Scattered Clouds